Погода в Владимире

Погода в Владимире : погода сейчас, прогноз погоды и архив. Всё, что Вы хотите узнать о погоде в Владимире!

Хотите узнать прогноз погоды в Владимире? Тогда Вам сюда: Погода в Владимире

Поиск расширенной информации на нашем сайте:

Другие новости

Новости СМИ2

Главная страница сайта

Новости сайта

03.07.2017

Напоминаем, что на нашем специализированном сайте Метеоцентр.Азия вы можете получить высокодетализированные автоматические прогнозы погоды по пунктам России, СНГ и мира в авиационном формате (включающие направление и скорость ветра, видимость, явления погоды, количество и форму облачности, нижнюю и верхнюю границу облачности).

Рекомендуем: Быстрый ремонт компьютеров во фряново у нас всегда отвечает стандартам.

Погода в Владимире - сегодня

Время (UTC), дата Ветер
(°,м/с) 
Видим.   Явления Облачность Т
(°С)
Тd
(°С)
f(%) Тe
(°С)
Pmin
(гПа)
dP
(гПа)
Po
(мм)
O2
(г/м3)
Тmin Tmax R s Состояние
почвы
03 18.07.17 190 (Ю) 4000 м  дымка  3/0 средняя 
[Ac trans]
+12.3 +11 92 +17  1017  0.4  747  286  +11        влажная 
06 18.07.17 230 (ЮЗ) 10 км    ясно 
+18.6 +12 65 +23  1016.2  -0.3  747  280           
09 18.07.17 220 (ЮЗ) 10 км    8/8 600 м 
[Cu med, cong]
+22.1 +10 46 +23  1015.2  -0.8  746  276           
12 18.07.17 230 (ЮЗ) 10 км    8/4 600 м средняя 
[Cu med, cong|Ac trans]
+23 +11.1 47 +26  1014.2  -0.9  746  275           
15 18.07.17 340 (С) 10 км    8/4 600 м кучево-дожд., средняя 
[Cb calv|Ac trans]
+20.3 +12.6 61 +25  1014.1  -0.2  746  277    +23.5       
18 18.07.17 160 (Ю) 4000 м  дымка{ливн. осадки}  8/6 600 м кучево-дожд., средняя 
[Cb calv|Ac trans]
+15.5 +14.3 93 +24  1015.1  0.6  746  282           
21 18.07.17 210 (ЮЗ) 4000 м  дымка  8/6 600 м средняя 
[Sc diur, vesp|Ac trans]
+14.8 +13.9 94 +22  1015.3  0.2  746  282           
00 19.07.17 240 (ЮЗ) 2000 м  дымка  6/3 600 м средняя 
[Sc|Ac trans]
+14.5 +13.4 93 +21  1015.3  0.1  746  283           
03 19.07.17 220 (ЮЗ) 4000 м  дымка  8/5 600 м средняя 
[Sc|Ac trans]
+14.2 +12.9 92 +20  1015.6  0.2  746  283  +13.4    0.8    влажная 
06 19.07.17 210 (ЮЗ) 10 км    3/3 600 м 
[Sc]
+18.5 +13 70 +25  1015.8  0.6  747  279           
09 19.07.17 230 (ЮЗ) 10 км    4/4 600 м 
[Cu hum]
+20.9 +8 43 +21  1015.9  0.2  747  278           
12 19.07.17 270 (З) 3{10}  10 км    6/6 600 м 
[Cu Sc]
+21.9 +9.5 45 +23  1015.5  -0.2  747  277           
15 19.07.17 230 (ЮЗ) 10 км    5/5 600 м 
[Cu Sc]
+20.4 +9.4 49 +21  1015.5  -0.2  747  278    +22.2       
18 19.07.17 230 (ЮЗ) 10 км    3/0 средняя 
[Ac trans]
+16 +10.7 71 +19  1016.2  0.5  747  282           
21 19.07.17 тихо ()   10 км    8/0 средняя 
[Ac trans]
+13.5 +11.3 87 +17  1016.2  -0.2  747  285           
00 20.07.17 тихо ()   10 км    5/0 средняя 
[Ac trans]
+11.9 +10.2 89 +13  1016.3  0.1  747  286           
03 20.07.17 тихо ()   10 км    8/0 средняя 
[Ac trans]
+14 +12.2 89 +18  1016.3  0.2  747  284  +11.4        влажная 
06 20.07.17 310 (СЗ) 10 км    4/1 600 м средняя 
[Cu med, cong|Ac trans]
+18.7 +11.4 62 +23  1015.9  0.1  747  280           
09 20.07.17 210 (ЮЗ) 10 км    8/5 600 м 
[Cu Sc]
+21.1 +7.6 42 +21  1015.2  -0.6  746  278           
12 20.07.17 240 (ЮЗ) 10 км    8/6 600 м средняя 
[Cu med, cong|Ac trans]
+21.2 +8 43 +21  1014.2  -0.9  746  277           
15 20.07.17 240 (ЮЗ) 10 км    8/4 600 м верхняя 
[Sc diur, vesp|Ci sp]
+21 +8.3 44 +21  1013.5  -0.7  745  277    +22.8       
18 20.07.17 210 (ЮЗ) 10 км    6/3 600 м верхняя 
[Sc diur, vesp|Ci fib]
+15.2 +10.9 75 +19  1014.1  0.2  745  282           
21 20.07.17 210 (ЮЗ) 10 км    3/3 600 м 
[Sc diur, vesp]
+12.2 +10.6 90 +15  1014  -0.3  745  285           
00 21.07.17 тихо ()   4000 м  пыльная буря на расстоянии  3/3 600 м 
[Sc diur, vesp]
+12.7 +11.3 91 +16  1013.5  -0.5  745  285           
03 21.07.17 210 (ЮЗ) 10 км    4/4 600 м 
[Sc]
+14.5 +11.1 80 +19  1012.9  -0.4  744  283  +11.9        влажная 
Время (UTC), дата Ветер
(°,м/с) 
Видим.   Явления Облачность Т
(°С)
Тd
(°С)
f(%) Тe
(°С)
Pmin
(гПа)
dP
(гПа)
Po
(мм)
O2
(г/м3)
Тmin Tmax R s Состояние
почвы

Для получения пояснительной информации подведите курсор к названию столбца.

ПОГОДА в Владимире - архив

Всё, что Вы хотите узнать о погоде в Владимире - удобно и подробно!

Выберите нужную дату (начиная с 1 января 2015* года) и нажмите кнопку "Найти".
Будут отображены архивные сводки погоды по пункту Владимир, начиная с указанной даты.


Отображать данные в формате CSV (для использования в таблицах Excel)


Внимание! Наш архив погоды предназначен исключительно для личного некоммерческого использования в познавательных целях. Если Вам необходимы официальные справки о состоянии погоды (для производственных, юридических, коммерческих и т.п. целей), обращайтесь в органы Росгидромета.

*Примечание: данная дата относится к архиву по метеостанциям СССР (Россия, СНГ, Балтия).
Архив по метеостанциям Зарубежной Европы и Азии (кроме Китая) хранится 10 дней, по другим регионам земного шара (Китай, Африка, Америка, Австралия, Океания) - 1 день.

Владимир - район местоположения метеостанции


Название, широта, долгота, высота метеостанции:
Владимир 56.1°ш. 40.3°д. 172 м над ур. моря [Российская Федерация]

Дополнительная информация

В oтличие oт бoльшинства пoгoдных сайтoв мы публикуем пoдрoбную метеoинфoрмацию в детальнoм прoфессиoнальнoм фoрмате.

Характеристики температуры и влажнoсти вoздуха измеряются на высoте 2 м в тени вдали oт зданий и деревьев.
Скoрoсть ветра измеряется на высoте 10 м (на урoвне рoста челoвека скoрoсть ветра ниже в 1.5-2 раза). Если метеoстанция нахoдится в гoрoде или в лесу, тo скoрoсть ветра занижена на 2-4 м/с пo сравнению с oткрытым местoм. Скoрoсть ветра над акватoриями крупных рек и oзёр, а также на вершинах хoлмoв на 2-5 м/с выше, чем в oбычных услoвиях.
Атмoсфернoе давление в разных тoчках местнoсти мoжет значительнo oтличаться oт давления на метеoстанции, в зависимoсти oт услoвий рельефа (при пoдъёме на 10 м давление пoнижается примернo на 1 мм рт.ст.).